Details for Air Canada Jazz at CYHZ




Go Back


Latest METAR
Local Time

CYHZ 240700Z 34011KT 15SM SCT017 BKN210 02/M01 A2993 RMK SC4CI1 SLP140

24/05/2018, 04:34:52

Description
Results
Air Canada Jazz Logo
Number of Pilots based at CYHZ
0 Pilots Based here
Number of Air Canada Jazz Flights Departed from CYHZ
2 Flights Departed
Number of Air Canada Jazz Flights Arrived at CYHZ
1 Flights Arrived
Number of Air Canada Jazz Schedules Departing from CYHZ
0 Schedules
Number of Air Canada Jazz Schedules Arriving at CYHZ
0 Schedules
Number of Air Canada Jazz Schedules Departing from CYHZ availible today
0 Schedules Today
Number of Air Canada Jazz Schedules Arriving at CYHZ availible today
0 Schedules Today
Average Landing Rate at CYHZ
-129 fpm
Air Canada Jazz Average Landing Rate at CYHZ
-47 fpm
Total Fuel Purchased at CYHZ by Air Canada Jazz
2,865.80 kgs / 6,317.94 lbs

Pilots Based at CYHZ


Pilot ID
Pilot Name
Pilot Rank
No. of Flights
No. of Flying Hours
There are no pilots assigned to this hub!   Will you be the first?
Content